Date,TemperatureHighF,TemperatureAvgF,TemperatureLowF,DewpointHighF,DewpointAvgF,DewpointLowF,HumidityHigh,HumidityAvg,HumidityLow,PressureMaxIn,PressureMinIn,WindSpeedMaxMPH,WindSpeedAvgMPH,GustSpeedMaxMPH,PrecipitationSumIn
2013-10-1,86,82,80,74,72,71,78,73,65,29.96,29.87,16,2,16,0.00
2013-10-2,85,81,79,74,72,70,80,75,68,29.96,29.90,15,3,15,0.00
2013-10-3,87,82,78,75,72,69,80,74,65,29.97,29.88,11,0,11,0.00
2013-10-4,87,81,79,74,72,70,80,73,62,29.98,29.91,14,2,14,0.00
2013-10-5,88,82,79,76,73,70,85,76,65,29.95,29.86,17,1,17,0.03
2013-10-6,88,82,80,76,74,72,84,77,64,29.88,29.78,15,2,15,0.01
2013-10-7,86,78,74,75,73,70,95,86,61,29.79,29.70,27,5,27,0.22
2013-10-8,88,79,74,76,72,68,97,81,54,29.82,29.71,21,5,21,0.00
2013-10-9,80,77,73,75,73,70,96,87,78,29.90,29.79,26,10,26,0.56
2013-10-10,81,76,69,74,70,67,96,80,67,29.94,29.86,21,6,21,0.00
2013-10-11,82,78,76,69,67,63,76,67,55,29.94,29.85,11,0,11,0.00
2013-10-12,84,78,70,70,68,66,90,72,58,29.94,29.85,11,0,11,0.00
2013-10-13,81,79,73,69,66,63,79,66,56,29.97,29.88,16,3,16,0.00
2013-10-14,81,78,71,73,70,65,91,76,63,29.93,29.83,20,4,20,0.00
2013-10-15,79,75,69,74,71,68,98,87,73,29.88,29.79,8,0,8,0.00
2013-10-16,82,77,72,74,72,70,93,84,76,29.86,29.80,10,0,10,0.00
2013-10-17,86,79,72,75,72,69,92,81,68,29.88,29.80,10,0,10,0.00
2013-10-18,84,80,73,76,73,70,91,80,73,29.90,29.81,13,2,13,0.00
2013-10-19,83,80,76,76,74,72,89,82,74,29.87,29.78,20,8,20,0.00
2013-10-20,87,80,76,78,75,73,94,87,75,29.86,29.77,16,2,16,0.02
2013-10-21,84,81,77,78,76,74,91,85,77,29.90,29.81,19,5,19,0.00
2013-10-22,90,82,78,79,75,69,92,78,54,29.87,29.72,22,6,22,0.00
2013-10-23,80,76,74,74,70,65,94,82,68,29.87,29.70,21,4,21,0.00
2013-10-24,76,74,69,66,62,59,78,67,60,30.02,29.87,22,9,22,0.00
2013-10-25,78,74,68,68,63,59,87,70,59,30.08,30.00,22,7,22,0.00
2013-10-26,77,74,73,64,60,54,73,61,50,30.08,29.98,18,5,18,0.00
2013-10-27,76,72,65,67,62,58,87,72,58,30.01,29.94,13,4,15,0.00
2013-10-28,84,75,66,70,66,62,88,75,58,30.06,29.96,19,4,19,0.00
2013-10-29,82,78,76,71,68,65,81,71,63,30.10,30.00,21,8,21,0.00
2013-10-30,83,79,77,70,68,66,76,71,63,30.11,30.00,17,3,17,0.00
2013-10-31,81,79,77,74,70,66,84,75,68,30.03,29.91,19,9,19,0.00